Weather History for KIAG - November, 2012

Change the Weather History Date:

Sunday, November 18, 2012

  Actual Average Record
Temperature  
Mean Temperature 40 °F -  
Max Temperature 52 °F 45 °F 57 °F (1991)
Min Temperature 28 °F 30 °F 16 °F (2014)
Degree Days  
Heating Degree Days 25    
Moisture  
Dew Point 30 °F    
Average Humidity 83    
Maximum Humidity 96    
Minimum Humidity 47    
Precipitation  
Precipitation 0.00 in - - ()
Sea Level Pressure  
Sea Level Pressure 30.59 in    
Wind  
Wind Speed 3 mph (ENE)    
Max Wind Speed 8 mph    
Max Gust Speed -    
Visibility 5 miles    
Events Fog    
Averages and records for this station are not official NWS values.
T = Trace of Precipitation, MM = Missing Value Source: NWS Daily Summary

Daily Weather History Graph

Daily Weather History Graph

Search for Another Location

Airport or City:

Trip Planner

Search our weather history database for the weather conditions in past years. The results will help you decide how hot, cold, wet, or windy it might be!

Date:

Astronomy

Nov. 18, 2012 Rise Set
Actual Time 7:12 AM EST 4:48 PM EST
Civil Twilight 6:41 AM EST 5:19 PM EST
Nautical Twilight 6:07 AM EST 5:54 PM EST
Astronomical Twilight 5:33 AM EST 6:28 PM EST
Moon 11:36 AM EST (11/18) 10:08 PM EST (11/18)
Length of Visible Light 10h 37m
Length of Day
9h 36m
Waxing Crescent, 30% of the Moon is Illuminated
Nov 18
Waxing Crescent
Nov 20
First Quarter
Nov 28
Full
Dec 6
Last Quarter
Dec 13
New

Hourly Weather History & Observations

Time (EST) Temp. Windchill Dew Point Humidity Pressure Visibility Wind Dir Wind Speed Gust Speed Precip Events Conditions
12:53 AM 30.0 °F 26.5 °F 28.0 °F 92% 30.64 in 0.2 mi East 3.5 mph - N/A Fog Light Freezing Fog
1:27 AM 30.2 °F 26.7 °F 28.4 °F 93% 30.58 in 0.8 mi NE 3.5 mph - N/A   Mist
1:32 AM 30.2 °F 26.7 °F 28.4 °F 93% 30.58 in 1.2 mi NE 3.5 mph - N/A   Scattered Clouds
1:40 AM 30.2 °F 26.7 °F 28.4 °F 93% 30.58 in 1.5 mi ENE 3.5 mph - N/A   Partly Cloudy
1:53 AM 32.0 °F - 30.0 °F 92% 30.62 in 2.0 mi Calm Calm - N/A   Clear
2:00 AM 30.2 °F 26.7 °F 28.4 °F 93% 30.58 in 1.5 mi East 3.5 mph - N/A   Clear
2:16 AM 30.2 °F - 28.4 °F 93% 30.58 in 2.0 mi Calm Calm - N/A   Clear
2:44 AM 30.2 °F - 28.4 °F 93% 30.59 in 1.5 mi Calm Calm - N/A   Clear
2:53 AM 30.0 °F - 28.0 °F 92% 30.63 in 1.8 mi Calm Calm - N/A   Clear
3:02 AM 30.2 °F - 28.4 °F 93% 30.59 in 2.5 mi Calm Calm - N/A   Clear
3:36 AM 28.4 °F - 26.6 °F 93% 30.59 in 1.8 mi Calm Calm - N/A   Clear
3:53 AM 28.9 °F 25.2 °F 27.0 °F 92% 30.63 in 1.8 mi NE 3.5 mph - N/A   Clear
4:06 AM 28.4 °F 24.6 °F 26.6 °F 93% 30.58 in 2.0 mi East 3.5 mph - N/A   Clear
4:53 AM 30.0 °F 25.2 °F 28.0 °F 92% 30.64 in 2.5 mi East 4.6 mph - N/A   Clear
5:37 AM 28.4 °F - 26.6 °F 93% 30.59 in 3.0 mi Calm Calm - N/A   Clear
5:53 AM 28.9 °F 25.2 °F 27.0 °F 92% 30.64 in 3.0 mi East 3.5 mph - N/A   Clear
6:53 AM 28.0 °F 22.8 °F 26.1 °F 92% 30.64 in 4.0 mi East 4.6 mph - N/A   Clear
7:00 AM 28.4 °F - 26.6 °F 93% 30.60 in 4.0 mi Calm Calm - N/A   Mostly Cloudy
7:53 AM 28.9 °F - 28.0 °F 96% 30.64 in 5.0 mi Calm Calm - N/A   Mostly Cloudy
8:53 AM 32.0 °F 27.5 °F 30.0 °F 92% 30.65 in 6.0 mi ESE 4.6 mph - N/A   Mostly Cloudy
9:53 AM 39.0 °F 36.8 °F 33.1 °F 79% 30.63 in 8.0 mi ESE 3.5 mph - N/A   Mostly Cloudy
10:53 AM 45.0 °F - 33.1 °F 63% 30.63 in 10.0 mi Calm Calm - N/A   Mostly Cloudy
11:53 AM 48.9 °F - 34.0 °F 56% 30.60 in 10.0 mi Calm Calm - N/A   Mostly Cloudy
12:53 PM 51.1 °F - 33.1 °F 50% 30.57 in 10.0 mi Calm Calm - N/A   Mostly Cloudy
1:53 PM 52.0 °F - 33.1 °F 49% 30.55 in 10.0 mi ENE 3.5 mph - N/A   Mostly Cloudy
2:53 PM 52.0 °F - 32.0 °F 47% 30.54 in 10.0 mi ENE 4.6 mph - N/A   Mostly Cloudy
3:53 PM 48.9 °F - 32.0 °F 52% 30.54 in 10.0 mi ENE 8.1 mph - N/A   Mostly Cloudy
4:53 PM 44.1 °F 39.5 °F 30.9 °F 60% 30.55 in 10.0 mi ENE 8.1 mph - N/A   Mostly Cloudy
5:53 PM 41.0 °F 35.8 °F 34.0 °F 76% 30.56 in 9.0 mi ENE 8.1 mph - N/A   Mostly Cloudy
6:53 PM 37.9 °F 32.7 °F 33.1 °F 83% 30.56 in 8.0 mi East 6.9 mph - N/A   Mostly Cloudy
7:53 PM 37.0 °F 32.4 °F 32.0 °F 82% 30.55 in 8.0 mi East 5.8 mph - N/A   Scattered Clouds
8:53 PM 35.1 °F 30.1 °F 30.9 °F 85% 30.54 in 7.0 mi East 5.8 mph - N/A   Partly Cloudy
9:53 PM 34.0 °F 31.0 °F 30.0 °F 85% 30.53 in 7.0 mi East 3.5 mph - N/A   Partly Cloudy
10:53 PM 33.1 °F 28.7 °F 28.9 °F 85% 30.51 in 6.0 mi East 4.6 mph - N/A   Partly Cloudy
11:53 PM 33.8 °F - 30.2 °F 87% 30.47 in 5.0 mi Calm Calm - N/A   Clear